Tracking 22836 objects as of 16-Apr-2021
HD Live streaming from Space Station
objects crossing your sky now

STARLINK-1611

Track STARLINK-1611 now!
10-day predictions
STARLINK-1611 is classified as:


NORAD ID: 46147
Int'l Code: 2020-057AG
Perigee: 553.6 km
Apogee: 555.1 km
Inclination: 53.1 °
Period: 95.6 minutes
Semi major axis: 6925 km
RCS: Unknown
Launch date: August 18, 2020
Source: United States (US)
Launch site: AIR FORCE EASTERN TEST RANGE (AFETR)
aabbcc
Your satellite tracking list
Your tracking list is empty




NASA's NSSDC Master Catalog

Two Line Element Set (TLE):
1 46147U 20057AG  21105.59332716  .00001098  00000-0  92567-4 0  9992
2 46147  53.0575  68.1739 0001115  68.0677 292.0430 15.06394321 37661
Source of the keplerian elements: AFSPC